Regional Weather Roundup
Issued by NWS

Home | Current Version | Previous Version | Text Only | Print | Product List | Glossary Off
Versions: 1 2 3 4 5 6 7 8 9 10 11 12 13 14 15 16 17 18 19 20 21 22 23 24 25 26 27 28 29 30 31 32 33 34 35 36 37 38 39 40 41 42 43 44 45 46 47 48 49 50

000
ASUS45 KPSR 212310
RWRAZ

ARIZONA REGIONAL HOURLY WEATHER ROUNDUP
NATIONAL WEATHER SERVICE PHOENIX AZ
400 PM MST MON JUL 21 2014

NOTE: FAIR INDICATES FEW OR NO CLOUDS BELOW 12,000 FEET WITH NO
SIGNIFICANT WEATHER AND/OR OBSTRUCTIONS TO VISIBILITY.

AZZ001>003-036-220000-
NORTHWEST ARIZONA

CITY           SKY/WX    TMP DP  RH WIND       PRES   REMARKS
BULLHEAD CITY  SUNNY    106  28   6 SE17G24   29.85F
KINGMAN        NOT AVBL
$$

AZZ004>008-015-016-018-220000-
NORTH CENTRAL ARIZONA

CITY           SKY/WX    TMP DP  RH WIND       PRES   REMARKS
GRAND CANYON   SUNNY     85  34  16 SW15G23   30.32F
WILLIAMS       SUNNY     82  36  18 SW12G17   30.40F
PRESCOTT       SUNNY     89  38  16 S12       30.21F
FLAGSTAFF      SUNNY     83  34  17 VRB3      30.35F
PAYSON         SUNNY     90  36  14 CALM      30.22F
PAGE           SUNNY     99  30   9 VRB6      30.08F
$$

AZZ009>014-017-220000-
NORTHEAST ARIZONA

CITY           SKY/WX    TMP DP  RH WIND       PRES   REMARKS
WINSLOW        SUNNY     97  35  11 SW9G18    30.15F
SAINT JOHNS    MOSUNNY   90  39  16 VRB3      30.22F
WINDOW ROCK    MOSUNNY   88  33  14 VRB3      30.30F
SHOW LOW       CLOUDY    84  39  20 E9        30.31S
$$

AZZ023-220000-
GREATER PHOENIX AREA

CITY           SKY/WX    TMP DP  RH WIND       PRES   REMARKS
PHOENIX        MOSUNNY  105  38  10 VRB6      29.88F
BUCKEYE          N/A    104  41  11 SW5       29.90F
GLENDALE       MOSUNNY  106  43  11 S9G21     29.91F HX 101
LUKE AFB       NOT AVBL
DEER VALLEY    SUNNY    101  39  12 S5G16     29.91F
SCOTTSDALE     SUNNY    104  41  11 W8        29.93F
MESA-FALCON    SUNNY    104  43  12 W12       29.92
MESA-GATEWAY   MOSUNNY  102  37  10 W7        29.93F
CHANDLER       MOSUNNY  104  39  11 NW8       29.91F
$$

AZZ027-028-220000-
SOUTHWEST MARICOPA COUNTY AND PINAL COUNTY

CITY           SKY/WX    TMP DP  RH WIND       PRES   REMARKS
CASA GRANDE    SUNNY    102  45  14 W8        29.93F
GILA BEND      CLEAR    108  41  10 W9G18     29.88F HX 102
$$

AZZ503-504-507>509-220000-
SOUTHEAST ARIZONA

CITY           SKY/WX    TMP DP  RH WIND       PRES   REMARKS
TUCSON         SUNNY    101  40  12 N10       30.01F
DAVIS-MONTHAN  SUNNY     99  43  14 N13       30.00F
RYAN FIELD       N/A    100  43  14 NW8       30.00F
NOGALES        MOSUNNY   96  49  20 NW10      30.09F
SIERRA VISTA   PTSUNNY   91  45  19 VRB6      30.17F
DOUGLAS        CLOUDY    87  55  33 SE13      30.12F
SAFFORD        PTSUNNY   99  40  13 W13       29.98F
$$

AZZ020-021-025-026-031-220000-
SOUTHWEST ARIZONA

CITY           SKY/WX    TMP DP  RH WIND       PRES   REMARKS
YUMA           NOT AVBL
$$

CAZ031-033-041-043-047-048-061-220000-
SOUTHERN CALIFORNIA

CITY           SKY/WX    TMP DP  RH WIND       PRES   REMARKS
DOWNTOWN L.A.  SUNNY     77  61  57 VRB5G16   30.02S
L.A. AIRPORT   MOSUNNY   73  61  65 W18       30.03F
SAN DIEGO      MOSUNNY   76  60  57 NW15G22   30.02F
BURBANK        SUNNY     82  58  43 S9        30.01S
ONTARIO        MOSUNNY   88  57  34 W17       30.00F
RIVERSIDE      SUNNY     87  58  37 W12G22    29.98F
PALM SPRINGS   SUNNY    105  43  12 MISG      29.86F HX 100
EL CENTRO NAS  MOSUNNY  105  40  11 E8        29.80F
IMPERIAL       SUNNY    105  41  11 E12       29.80F HX 100
BLYTHE         SUNNY    107  44  12 SE16G24   29.83F HX 102
NEEDLES        SUNNY    108  24   5 S14G21    29.86F HX 100
$$

NVZ020-UTZ003-220000-
SOUTHERN NEVADA-UTAH

CITY           SKY/WX    TMP DP  RH WIND       PRES   REMARKS
LAS VEGAS      NOT AVBL
SALT LAKE CITY PTSUNNY   95  22   7 SE22G32   30.00F
$$

NMZ009-TXZ055-220000-
NEW MEXICO-WEST TEXAS

CITY           SKY/WX    TMP DP  RH WIND       PRES   REMARKS
ALBUQUERQUE    MOSUNNY   93  43  17 S5        30.15F
EL PASO        MOSUNNY   98  46  17 VRB5      30.02F
$$


........................KEY........................
SKY/WX - SKY CONDITION/WEATHER
TMP    - TEMPERATURE IN FAHRENHEIT
DP     - DEW POINT IN FAHRENHEIT
RH     - RELATIVE HUMIDITY IN PERCENT
WIND   - DIRECTION AND SPEED IN MILES PER HOUR (MPH)
VRB    - VARIABLE WIND DIRECTION
PRES   - MEAN SEA LEVEL PRESSURE IN INCHES OF MERCURY
         F - FALLING PRESSURE   R - RISING PRESSURE
         S - STEADY PRESSURE
VSB    - VISIBILITY IN MILES
HX     - HEAT INDEX IN FAHRENHEIT
WCI    - WIND CHILL INDEX IN FAHRENHEIT
TC     - TEMPERATURE IN CELSIUS WHICH IS ALSO KNOWN AS
         TEMPERATURE IN CENTIGRADE
AFB    - AIR FORCE BASE
         LUKE AFB IS LUKE AIR FORCE BASE
         DAVIS-MONTHAN IS DAVIS-MONTHAN AIR FORCE BASE
NAS    - NAVAL AIR STATION
         EL CENTRO NAS IS EL CENTRO NAVAL AIR STATION
N/A    - NOT AVAILABLE



USA.gov is the U.S. government's official web portal to all federal, state and local government web resources and services.